TimeCST,TemperatureF,Dew PointF,Humidity,Sea Level PressureIn,VisibilityMPH,Wind Direction,Wind SpeedMPH,Gust SpeedMPH,PrecipitationIn,Events,Conditions,WindDirDegrees,DateUTC
12:52 AM,3.9,-0.0,84,30.46,10.0,WNW,5.8,-,N/A,,Clear,300,2012-12-26 06:52:00
1:52 AM,3.9,-0.0,84,30.46,10.0,NNW,8.1,-,N/A,,Clear,340,2012-12-26 07:52:00
2:52 AM,3.0,-0.9,84,30.46,10.0,NNW,6.9,-,N/A,,Clear,330,2012-12-26 08:52:00
3:52 AM,-0.9,-4.0,87,30.44,10.0,WNW,3.5,-,N/A,,Clear,290,2012-12-26 09:52:00
4:52 AM,-0.0,-2.9,88,30.41,10.0,Calm,Calm,-,N/A,,Clear,0,2012-12-26 10:52:00
5:52 AM,-2.0,-5.1,87,30.39,10.0,Calm,Calm,-,N/A,,Clear,0,2012-12-26 11:52:00
6:52 AM,-0.9,-4.0,87,30.39,10.0,NW,4.6,-,N/A,,Clear,310,2012-12-26 12:52:00
7:52 AM,-0.9,-4.0,87,30.38,10.0,NW,4.6,-,N/A,,Clear,310,2012-12-26 13:52:00
8:52 AM,3.0,-0.9,84,30.38,10.0,NW,4.6,-,N/A,,Clear,320,2012-12-26 14:52:00
9:52 AM,6.1,-0.0,76,30.39,10.0,NW,4.6,-,N/A,,Clear,310,2012-12-26 15:52:00
10:52 AM,9.0,1.9,73,30.39,10.0,Calm,Calm,-,N/A,,Partly Cloudy,0,2012-12-26 16:52:00
11:52 AM,12.0,3.9,70,30.35,10.0,Calm,Calm,-,N/A,,Clear,0,2012-12-26 17:52:00
12:52 PM,14.0,5.0,67,30.32,10.0,ESE,4.6,-,N/A,,Mostly Cloudy,120,2012-12-26 18:52:00
1:52 PM,15.1,5.0,64,30.30,10.0,Calm,Calm,-,N/A,,Overcast,0,2012-12-26 19:52:00
2:52 PM,18.0,6.1,60,30.29,10.0,Calm,Calm,-,N/A,,Overcast,0,2012-12-26 20:52:00
3:52 PM,17.1,7.0,65,30.28,10.0,East,4.6,-,N/A,,Clear,100,2012-12-26 21:52:00
4:52 PM,14.0,6.1,71,30.29,10.0,ESE,3.5,-,N/A,,Clear,110,2012-12-26 22:52:00
5:52 PM,15.1,9.0,77,30.29,10.0,Calm,Calm,-,N/A,,Clear,0,2012-12-26 23:52:00
6:52 PM,15.1,8.1,74,30.28,10.0,SSE,3.5,-,N/A,,Clear,150,2012-12-27 00:52:00
7:52 PM,14.0,7.0,74,30.26,10.0,East,5.8,-,N/A,,Clear,100,2012-12-27 01:52:00
8:52 PM,14.0,7.0,74,30.27,10.0,SSE,4.6,-,N/A,,Clear,150,2012-12-27 02:52:00
9:52 PM,12.0,8.1,84,30.25,10.0,Calm,Calm,-,N/A,,Clear,0,2012-12-27 03:52:00
10:52 PM,12.9,7.0,77,30.26,10.0,East,3.5,-,N/A,,Clear,90,2012-12-27 04:52:00
11:52 PM,12.9,7.0,77,30.25,10.0,East,6.9,-,N/A,,Clear,100,2012-12-27 05:52:00